| time (UTC) | temp F | wind direction | speed MPH | gust MPH | rain 1hr in | rain 24hr in | rain mn in | humidity % | barometer mb |
| 20260831222726 | 75 | 289 | 4.0 | 6.0 | 0.00 | 0.00 | 0.00 | 43 | 1010.5 |
| 20260831222225 | 74 | 222 | 0.0 | 0.0 | 0.00 | 0.00 | 0.00 | 43 | 1010.5 |
| 20260831221724 | 75 | 290 | 1.0 | 1.0 | 0.00 | 0.00 | 0.00 | 45 | 1010.2 |
| 20260831221222 | 75 | 89 | 2.0 | 2.0 | 0.00 | 0.00 | 0.00 | 44 | 1010.5 |
| 20260831220722 | 75 | 99 | 1.0 | 2.0 | 0.00 | 0.00 | 0.00 | 44 | 1010.5 |
| 20260831220223 | 74 | 205 | 0.0 | 1.0 | 0.00 | 0.00 | 0.00 | 43 | 1010.5 |
| 20260831215722 | 74 | 79 | 1.0 | 2.0 | 0.00 | 0.00 | 0.00 | 44 | 1010.5 |
| 20260831215224 | 74 | 66 | 3.0 | 5.0 | 0.00 | 0.00 | 0.00 | 44 | 1010.5 |
| 20260831214724 | 74 | 238 | 1.0 | 2.0 | 0.00 | 0.00 | 0.00 | 44 | 1010.5 |
| 20260831214223 | 74 | 238 | 2.0 | 3.0 | 0.00 | 0.00 | 0.00 | 44 | 1010.5 |
| 20260831213723 | 74 | 321 | 2.0 | 2.0 | 0.00 | 0.00 | 0.00 | 45 | 1010.5 |
| 20260831213223 | 74 | 254 | 3.0 | 5.0 | 0.00 | 0.00 | 0.00 | 45 | 1010.5 |
| 20260831212722 | 74 | 235 | 0.0 | 1.0 | 0.00 | 0.00 | 0.00 | 46 | 1010.5 |
| 20260831212223 | 74 | 122 | 2.0 | 3.0 | 0.00 | 0.00 | 0.00 | 44 | 1010.5 |
| 20260831211722 | 73 | 316 | 0.0 | 1.0 | 0.00 | 0.00 | 0.00 | 44 | 1010.5 |
| 20260831211223 | 73 | 295 | 0.0 | 1.0 | 0.00 | 0.00 | 0.00 | 45 | 1010.5 |
| 20260831210719 | 73 | 219 | 0.0 | 0.0 | 0.00 | 0.00 | 0.00 | 45 | 1010.5 |
| 20260831210221 | 73 | 124 | 1.0 | 1.0 | 0.00 | 0.00 | 0.00 | 44 | 1010.8 |
| 20260831205719 | 73 | 136 | 1.0 | 2.0 | 0.00 | 0.00 | 0.00 | 44 | 1010.8 |
| 20260831205220 | 72 | 293 | 2.0 | 3.0 | 0.00 | 0.00 | 0.00 | 44 | 1010.8 |
| 20260831204719 | 72 | 133 | 1.0 | 2.0 | 0.00 | 0.00 | 0.00 | 45 | 1010.8 |
| 20260831204219 | 72 | 247 | 0.0 | 1.0 | 0.00 | 0.00 | 0.00 | 45 | 1011.2 |
| 20260831203719 | 72 | 158 | 3.0 | 3.0 | 0.00 | 0.00 | 0.00 | 45 | 1010.8 |
| 20260831203221 | 72 | 128 | 0.0 | 1.0 | 0.00 | 0.00 | 0.00 | 45 | 1010.8 |
| 20260831202717 | 72 | 174 | 1.0 | 2.0 | 0.00 | 0.00 | 0.00 | 46 | 1010.8 |
| 20260831202218 | 72 | 53 | 2.0 | 2.0 | 0.00 | 0.00 | 0.00 | 46 | 1011.2 |
| 20260831201718 | 72 | 222 | 2.0 | 2.0 | 0.00 | 0.00 | 0.00 | 44 | 1011.2 |
| 20260831201218 | 72 | 192 | 0.0 | 1.0 | 0.00 | 0.00 | 0.00 | 46 | 1011.2 |
| 20260831200717 | 71 | 106 | 1.0 | 2.0 | 0.00 | 0.00 | 0.00 | 45 | 1011.2 |
| 20260831200216 | 71 | 158 | 1.0 | 1.0 | 0.00 | 0.00 | 0.00 | 46 | 1011.2 |
| 20260831195718 | 71 | 77 | 0.0 | 1.0 | 0.00 | 0.00 | 0.00 | 47 | 1011.2 |
| 20260831195216 | 71 | 294 | 1.0 | 1.0 | 0.00 | 0.00 | 0.00 | 48 | 1011.2 |
| 20260831194717 | 71 | 183 | 0.0 | 1.0 | 0.00 | 0.00 | 0.00 | 47 | 1011.2 |
| 20260831194215 | 71 | 221 | 0.0 | 1.0 | 0.00 | 0.00 | 0.00 | 47 | 1011.5 |
| 20260831193714 | 70 | 225 | 1.0 | 1.0 | 0.00 | 0.00 | 0.00 | 48 | 1011.5 |
| 20260831193215 | 70 | 131 | 0.0 | 1.0 | 0.00 | 0.00 | 0.00 | 49 | 1011.5 |
| 20260831192714 | 69 | 168 | 2.0 | 3.0 | 0.00 | 0.00 | 0.00 | 48 | 1011.5 |
| 20260831192216 | 69 | 303 | 0.0 | 1.0 | 0.00 | 0.00 | 0.00 | 48 | 1011.5 |
| 20260831191716 | 69 | 322 | 1.0 | 1.0 | 0.00 | 0.00 | 0.00 | 48 | 1011.5 |
| 20260831191216 | 69 | 186 | 0.0 | 0.0 | 0.00 | 0.00 | 0.00 | 49 | 1011.5 |
| 20260831190716 | 69 | 22 | 1.0 | 1.0 | 0.00 | 0.00 | 0.00 | 49 | 1011.9 |
| 20260831190217 | 69 | 251 | 0.0 | 1.0 | 0.00 | 0.00 | 0.00 | 50 | 1011.9 |
| 20260831185715 | 69 | 260 | 1.0 | 1.0 | 0.00 | 0.00 | 0.00 | 47 | 1011.9 |
| 20260831185215 | 69 | 306 | 2.0 | 3.0 | 0.00 | 0.00 | 0.00 | 47 | 1011.9 |
| 20260831184642 | 69 | 267 | 2.0 | 3.0 | 0.00 | 0.00 | 0.00 | 48 | 1011.9 |
| 20260831184139 | 70 | 219 | 2.0 | 2.0 | 0.00 | 0.00 | 0.00 | 49 | 1011.9 |
| 20260831183638 | 69 | 265 | 2.0 | 2.0 | 0.00 | 0.00 | 0.00 | 47 | 1011.9 |
| 20260831183138 | 69 | 114 | 0.0 | 0.0 | 0.00 | 0.00 | 0.00 | 49 | 1011.9 |
| 20260831182644 | 69 | 326 | 1.0 | 1.0 | 0.00 | 0.00 | 0.00 | 48 | 1011.9 |
| 20260831182140 | 69 | 170 | 0.0 | 0.0 | 0.00 | 0.00 | 0.00 | 47 | 1011.9 |
| 20260831181638 | 68 | 75 | 1.0 | 2.0 | 0.00 | 0.00 | 0.00 | 49 | 1011.9 |
| 20260831181143 | 68 | 200 | 0.0 | 0.0 | 0.00 | 0.00 | 0.00 | 49 | 1012.2 |
| 20260831180639 | 68 | 248 | 3.0 | 5.0 | 0.00 | 0.00 | 0.00 | 49 | 1012.2 |
| 20260831180138 | 68 | 190 | 1.0 | 1.0 | 0.00 | 0.00 | 0.00 | 51 | 1012.2 |
| 20260831175640 | 67 | 209 | 0.0 | 1.0 | 0.00 | 0.00 | 0.00 | 51 | 1012.2 |
| 20260831175139 | 67 | 150 | 0.0 | 1.0 | 0.00 | 0.00 | 0.00 | 53 | 1012.2 |
| 20260831174637 | 67 | 2 | 1.0 | 2.0 | 0.00 | 0.00 | 0.00 | 54 | 1012.2 |
| 20260831174141 | 66 | 39 | 1.0 | 2.0 | 0.00 | 0.00 | 0.00 | 54 | 1012.2 |
| 20260831173638 | 66 | 105 | 1.0 | 1.0 | 0.00 | 0.00 | 0.00 | 54 | 1012.2 |
| 20260831173137 | 66 | 101 | 0.0 | 1.0 | 0.00 | 0.00 | 0.00 | 55 | 1012.2 |
| 20260831172636 | 66 | 349 | 2.0 | 2.0 | 0.00 | 0.00 | 0.00 | 54 | 1012.2 |
| 20260831172139 | 65 | 159 | 1.0 | 2.0 | 0.00 | 0.00 | 0.00 | 56 | 1012.2 |
| 20260831171639 | 65 | 296 | 3.0 | 5.0 | 0.00 | 0.00 | 0.00 | 58 | 1012.2 |
| 20260831171138 | 65 | 242 | 2.0 | 3.0 | 0.00 | 0.00 | 0.00 | 58 | 1012.2 |
| 20260831170642 | 65 | 166 | 0.0 | 1.0 | 0.00 | 0.00 | 0.00 | 57 | 1012.2 |
| 20260831170113 | 64 | 173 | 1.0 | 2.0 | 0.00 | 0.00 | 0.00 | 60 | 1012.2 |
| 20260831165611 | 64 | 165 | 0.0 | 0.0 | 0.00 | 0.00 | 0.00 | 58 | 1012.2 |
| 20260831165113 | 64 | 255 | 1.0 | 1.0 | 0.00 | 0.00 | 0.00 | 58 | 1012.5 |
| 20260831164614 | 63 | 15 | 2.0 | 2.0 | 0.00 | 0.00 | 0.00 | 59 | 1012.5 |
| 20260831164113 | 63 | 296 | 2.0 | 2.0 | 0.00 | 0.00 | 0.00 | 61 | 1012.2 |
| 20260831163615 | 63 | 290 | 3.0 | 3.0 | 0.00 | 0.00 | 0.00 | 61 | 1012.2 |
| 20260831163111 | 63 | 15 | 2.0 | 2.0 | 0.00 | 0.00 | 0.00 | 61 | 1012.5 |
| 20260831162615 | 63 | 293 | 2.0 | 2.0 | 0.00 | 0.00 | 0.00 | 61 | 1012.2 |
| 20260831162113 | 63 | 193 | 2.0 | 2.0 | 0.00 | 0.00 | 0.00 | 61 | 1012.5 |
| 20260831161612 | 62 | 297 | 1.0 | 2.0 | 0.00 | 0.00 | 0.00 | 60 | 1012.5 |
| 20260831161115 | 62 | 239 | 4.0 | 5.0 | 0.00 | 0.00 | 0.00 | 61 | 1012.5 |
| 20260831160618 | 62 | 273 | 1.0 | 2.0 | 0.00 | 0.00 | 0.00 | 62 | 1012.5 |
| 20260831160112 | 62 | 274 | 4.0 | 6.0 | 0.00 | 0.00 | 0.00 | 61 | 1012.5 |
| 20260831155614 | 62 | 275 | 0.0 | 1.0 | 0.00 | 0.00 | 0.00 | 61 | 1012.5 |
| 20260831155043 | 61 | 133 | 0.0 | 1.0 | 0.00 | 0.00 | 0.00 | 62 | 1012.5 |
| 20260831154543 | 61 | 154 | 3.0 | 5.0 | 0.00 | 0.00 | 0.00 | 64 | 1012.2 |
| 20260831154041 | 61 | 274 | 3.0 | 5.0 | 0.00 | 0.00 | 0.00 | 64 | 1012.5 |
| 20260831153539 | 60 | 269 | 3.0 | 3.0 | 0.00 | 0.00 | 0.00 | 63 | 1012.5 |
| 20260831153043 | 60 | 277 | 3.0 | 3.0 | 0.00 | 0.00 | 0.00 | 62 | 1012.5 |
| 20260831152539 | 59 | 236 | 1.0 | 2.0 | 0.00 | 0.00 | 0.00 | 63 | 1012.5 |
| 20260831152038 | 59 | 222 | 0.0 | 0.0 | 0.00 | 0.00 | 0.00 | 64 | 1012.2 |
| 20260831151540 | 59 | 275 | 0.0 | 1.0 | 0.00 | 0.00 | 0.00 | 64 | 1012.5 |
| 20260831151044 | 58 | 277 | 3.0 | 5.0 | 0.00 | 0.00 | 0.00 | 64 | 1012.2 |
| 20260831150517 | 58 | 244 | 3.0 | 5.0 | 0.00 | 0.00 | 0.00 | 64 | 1012.2 |
| 20260831150016 | 58 | 92 | 2.0 | 3.0 | 0.00 | 0.00 | 0.00 | 66 | 1012.5 |
| 20260831145515 | 57 | 321 | 1.0 | 1.0 | 0.00 | 0.00 | 0.00 | 66 | 1012.2 |
| 20260831145013 | 57 | 309 | 1.0 | 2.0 | 0.00 | 0.00 | 0.00 | 67 | 1012.2 |
| 20260831144514 | 57 | 302 | 3.0 | 5.0 | 0.00 | 0.00 | 0.00 | 67 | 1012.2 |
| 20260831144012 | 56 | 45 | 2.0 | 3.0 | 0.00 | 0.00 | 0.00 | 67 | 1012.2 |
| 20260831143516 | 56 | 264 | 2.0 | 3.0 | 0.00 | 0.00 | 0.00 | 66 | 1012.2 |
| 20260831143016 | 56 | 232 | 3.0 | 3.0 | 0.00 | 0.00 | 0.00 | 67 | 1012.2 |
| 20260831142513 | 55 | 271 | 1.0 | 2.0 | 0.00 | 0.00 | 0.00 | 68 | 1012.2 |
| 20260831142013 | 55 | 309 | 5.0 | 6.0 | 0.00 | 0.00 | 0.00 | 69 | 1012.2 |
| 20260831141516 | 55 | 166 | 1.0 | 2.0 | 0.00 | 0.00 | 0.00 | 69 | 1012.2 |
| 20260831141013 | 55 | 287 | 2.0 | 3.0 | 0.00 | 0.00 | 0.00 | 69 | 1012.2 |
| 20260831140513 | 55 | 259 | 3.0 | 5.0 | 0.00 | 0.00 | 0.00 | 69 | 1011.9 |
| 20260831140000 | 54 | 267 | 2.0 | 2.0 | 0.00 | 0.00 | 0.00 | 69 | 1011.9 |
| 20260831135426 | 54 | 34 | 2.0 | 3.0 | 0.00 | 0.00 | 0.00 | 68 | 1011.9 |
| 20260831134903 | 53 | 291 | 3.0 | 6.0 | 0.00 | 0.00 | 0.00 | 70 | 1011.9 |
| 20260831134345 | 53 | 298 | 1.0 | 1.0 | 0.00 | 0.00 | 0.00 | 71 | 1011.9 |
| 20260831133826 | 53 | 293 | 3.0 | 5.0 | 0.00 | 0.00 | 0.00 | 72 | 1011.9 |
| 20260831133245 | 53 | 301 | 2.0 | 3.0 | 0.00 | 0.00 | 0.00 | 72 | 1011.9 |
| 20260831132748 | 53 | 213 | 0.0 | 1.0 | 0.00 | 0.00 | 0.00 | 73 | 1011.9 |
| 20260831132225 | 53 | 244 | 2.0 | 3.0 | 0.00 | 0.00 | 0.00 | 74 | 1011.9 |
| 20260831131705 | 53 | 221 | 0.0 | 1.0 | 0.00 | 0.00 | 0.00 | 73 | 1011.5 |
| 20260831131153 | 53 | 237 | 1.0 | 2.0 | 0.00 | 0.00 | 0.00 | 72 | 1011.5 |
| 20260831130638 | 53 | 273 | 1.0 | 1.0 | 0.00 | 0.00 | 0.00 | 72 | 1011.5 |
| 20260831130126 | 53 | 307 | 1.0 | 2.0 | 0.00 | 0.00 | 0.00 | 71 | 1011.5 |
| 20260831125614 | 53 | 278 | 2.0 | 2.0 | 0.00 | 0.00 | 0.00 | 71 | 1011.5 |
| 20260831125054 | 53 | 264 | 2.0 | 2.0 | 0.00 | 0.00 | 0.00 | 71 | 1011.2 |
| 20260831124548 | 53 | 237 | 1.0 | 2.0 | 0.00 | 0.00 | 0.00 | 72 | 1011.2 |
| 20260831124036 | 54 | 287 | 1.0 | 2.0 | 0.00 | 0.00 | 0.00 | 72 | 1011.2 |
| 20260831123439 | 54 | 241 | 2.0 | 2.0 | 0.00 | 0.00 | 0.00 | 71 | 1011.2 |
| 20260831122941 | 53 | 229 | 0.0 | 1.0 | 0.00 | 0.00 | 0.00 | 70 | 1011.2 |
| 20260831122442 | 53 | 279 | 0.0 | 1.0 | 0.00 | 0.00 | 0.00 | 71 | 1011.2 |
| 20260831121939 | 53 | 251 | 0.0 | 1.0 | 0.00 | 0.00 | 0.00 | 71 | 1011.2 |
| 20260831121442 | 53 | 237 | 1.0 | 2.0 | 0.00 | 0.00 | 0.00 | 71 | 1011.2 |
| 20260831120942 | 53 | 299 | 1.0 | 2.0 | 0.00 | 0.00 | 0.00 | 71 | 1010.8 |
| 20260831120443 | 53 | 250 | 2.0 | 2.0 | 0.00 | 0.00 | 0.00 | 73 | 1010.8 |
| 20260831115941 | 53 | 230 | 1.0 | 1.0 | 0.00 | 0.00 | 0.00 | 74 | 1010.8 |
| 20260831115442 | 53 | 274 | 1.0 | 2.0 | 0.00 | 0.00 | 0.00 | 75 | 1010.8 |
| 20260831114944 | 53 | 242 | 0.0 | 1.0 | 0.00 | 0.00 | 0.00 | 75 | 1010.8 |
| 20260831114439 | 53 | 239 | 1.0 | 1.0 | 0.00 | 0.00 | 0.00 | 76 | 1010.8 |
| 20260831113940 | 53 | 236 | 0.0 | 1.0 | 0.00 | 0.00 | 0.00 | 76 | 1010.8 |
| 20260831113438 | 53 | 244 | 0.0 | 1.0 | 0.00 | 0.00 | 0.00 | 76 | 1010.8 |
| 20260831112944 | 53 | 220 | 1.0 | 2.0 | 0.00 | 0.00 | 0.00 | 76 | 1010.8 |
| 20260831112404 | 53 | 229 | 0.0 | 0.0 | 0.00 | 0.00 | 0.00 | 77 | 1010.8 |
| 20260831111904 | 54 | 233 | 0.0 | 0.0 | 0.00 | 0.00 | 0.00 | 78 | 1010.8 |
| 20260831111402 | 54 | 228 | 0.0 | 0.0 | 0.00 | 0.00 | 0.00 | 78 | 1010.5 |
| 20260831110904 | 54 | 214 | 0.0 | 0.0 | 0.00 | 0.00 | 0.00 | 76 | 1010.8 |
| 20260831110401 | 54 | 259 | 1.0 | 1.0 | 0.00 | 0.00 | 0.00 | 75 | 1010.5 |
| 20260831105901 | 54 | 224 | 1.0 | 1.0 | 0.00 | 0.00 | 0.00 | 74 | 1010.5 |
| 20260831105400 | 54 | 239 | 0.0 | 1.0 | 0.00 | 0.00 | 0.00 | 74 | 1010.5 |
| 20260831104842 | 54 | 282 | 1.0 | 1.0 | 0.00 | 0.00 | 0.00 | 74 | 1010.5 |
| 20260831104342 | 54 | 301 | 1.0 | 1.0 | 0.00 | 0.00 | 0.00 | 74 | 1010.5 |
| 20260831103802 | 54 | 234 | 1.0 | 1.0 | 0.00 | 0.00 | 0.00 | 73 | 1010.5 |
| 20260831103259 | 55 | 294 | 1.0 | 2.0 | 0.00 | 0.00 | 0.00 | 74 | 1010.5 |
| 20260831102758 | 55 | 315 | 0.0 | 1.0 | 0.00 | 0.00 | 0.00 | 74 | 1010.5 |
| 20260831102259 | 55 | 252 | 1.0 | 2.0 | 0.00 | 0.00 | 0.00 | 74 | 1010.5 |
| 20260831101758 | 55 | 262 | 3.0 | 5.0 | 0.00 | 0.00 | 0.00 | 75 | 1010.2 |
| 20260831101301 | 55 | 262 | 2.0 | 3.0 | 0.00 | 0.00 | 0.00 | 75 | 1010.5 |
| 20260831100801 | 55 | 313 | 2.0 | 3.0 | 0.00 | 0.00 | 0.00 | 75 | 1010.5 |
| 20260831100305 | 55 | 287 | 2.0 | 2.0 | 0.00 | 0.00 | 0.00 | 74 | 1010.2 |
| 20260831095758 | 55 | 307 | 2.0 | 2.0 | 0.00 | 0.00 | 0.00 | 74 | 1010.5 |
| 20260831095258 | 55 | 256 | 3.0 | 3.0 | 0.00 | 0.00 | 0.00 | 74 | 1010.2 |
| 20260831094759 | 55 | 250 | 2.0 | 3.0 | 0.00 | 0.00 | 0.00 | 75 | 1010.5 |
| 20260831094257 | 55 | 224 | 2.0 | 2.0 | 0.00 | 0.00 | 0.00 | 75 | 1010.2 |
| 20260831093756 | 55 | 261 | 2.0 | 3.0 | 0.00 | 0.00 | 0.00 | 75 | 1010.2 |
| 20260831093255 | 55 | 296 | 1.0 | 2.0 | 0.00 | 0.00 | 0.00 | 75 | 1010.5 |
| 20260831092756 | 55 | 316 | 4.0 | 6.0 | 0.00 | 0.00 | 0.00 | 75 | 1010.5 |
| 20260831092256 | 55 | 303 | 2.0 | 2.0 | 0.00 | 0.00 | 0.00 | 74 | 1010.2 |
| 20260831091757 | 56 | 267 | 3.0 | 3.0 | 0.00 | 0.00 | 0.00 | 74 | 1010.2 |
| 20260831091255 | 56 | 254 | 4.0 | 8.0 | 0.00 | 0.00 | 0.00 | 74 | 1010.2 |
| 20260831090754 | 56 | 290 | 3.0 | 5.0 | 0.00 | 0.00 | 0.00 | 74 | 1010.2 |
| 20260831090257 | 56 | 276 | 3.0 | 5.0 | 0.00 | 0.00 | 0.00 | 73 | 1010.2 |
| 20260831085753 | 56 | 261 | 4.0 | 6.0 | 0.00 | 0.00 | 0.00 | 72 | 1010.2 |
| 20260831085253 | 56 | 219 | 5.0 | 7.0 | 0.00 | 0.00 | 0.00 | 72 | 1010.2 |
| 20260831084752 | 56 | 274 | 2.0 | 2.0 | 0.00 | 0.00 | 0.00 | 72 | 1010.2 |
| 20260831084254 | 56 | 270 | 4.0 | 7.0 | 0.00 | 0.00 | 0.00 | 71 | 1010.2 |
| 20260831083753 | 56 | 282 | 4.0 | 5.0 | 0.00 | 0.00 | 0.00 | 72 | 1010.2 |
| 20260831083252 | 56 | 267 | 4.0 | 6.0 | 0.00 | 0.00 | 0.00 | 71 | 1010.2 |
| 20260831082753 | 56 | 315 | 5.0 | 6.0 | 0.00 | 0.00 | 0.00 | 71 | 1009.8 |
| 20260831082253 | 56 | 256 | 3.0 | 7.0 | 0.00 | 0.00 | 0.00 | 72 | 1009.8 |
| 20260831081751 | 56 | 285 | 3.0 | 5.0 | 0.00 | 0.00 | 0.00 | 73 | 1009.8 |
| 20260831081251 | 56 | 300 | 3.0 | 6.0 | 0.00 | 0.00 | 0.00 | 74 | 1009.8 |
| 20260831080750 | 56 | 254 | 4.0 | 6.0 | 0.00 | 0.00 | 0.00 | 74 | 1009.8 |
| 20260831080250 | 56 | 331 | 7.0 | 10.0 | 0.00 | 0.00 | 0.00 | 74 | 1009.8 |
| 20260831075752 | 56 | 267 | 3.0 | 3.0 | 0.00 | 0.00 | 0.00 | 72 | 1009.5 |
| 20260831075250 | 56 | 14 | 7.0 | 9.0 | 0.00 | 0.00 | 0.00 | 71 | 1009.8 |
| 20260831074750 | 56 | 280 | 4.0 | 7.0 | 0.00 | 0.00 | 0.00 | 71 | 1009.8 |
| 20260831074250 | 55 | 244 | 5.0 | 7.0 | 0.00 | 0.00 | 0.00 | 71 | 1009.5 |
| 20260831073749 | 55 | 349 | 2.0 | 5.0 | 0.00 | 0.00 | 0.00 | 73 | 1009.5 |
| 20260831073248 | 55 | 284 | 1.0 | 2.0 | 0.00 | 0.00 | 0.00 | 74 | 1009.5 |
| 20260831072747 | 55 | 292 | 3.0 | 6.0 | 0.00 | 0.00 | 0.00 | 73 | 1009.5 |
| 20260831072247 | 55 | 239 | 2.0 | 3.0 | 0.00 | 0.00 | 0.00 | 73 | 1009.5 |
| 20260831071747 | 55 | 326 | 4.0 | 5.0 | 0.00 | 0.00 | 0.00 | 74 | 1009.5 |
| 20260831071247 | 56 | 260 | 4.0 | 5.0 | 0.00 | 0.00 | 0.00 | 76 | 1009.5 |
| 20260831070747 | 56 | 259 | 2.0 | 3.0 | 0.00 | 0.00 | 0.00 | 78 | 1009.5 |
| 20260831070247 | 56 | 290 | 1.0 | 3.0 | 0.00 | 0.00 | 0.00 | 77 | 1009.5 |
| 20260831065746 | 56 | 297 | 3.0 | 5.0 | 0.00 | 0.00 | 0.00 | 77 | 1009.5 |
| 20260831065246 | 56 | 280 | 3.0 | 3.0 | 0.00 | 0.00 | 0.00 | 77 | 1009.5 |
| 20260831064746 | 56 | 230 | 2.0 | 5.0 | 0.00 | 0.00 | 0.00 | 77 | 1009.5 |
| 20260831064246 | 56 | 308 | 1.0 | 1.0 | 0.00 | 0.00 | 0.00 | 78 | 1009.1 |
| 20260831063745 | 56 | 212 | 1.0 | 1.0 | 0.00 | 0.00 | 0.00 | 78 | 1009.5 |
| 20260831063245 | 57 | 227 | 3.0 | 5.0 | 0.00 | 0.00 | 0.00 | 79 | 1009.5 |
| 20260831062744 | 57 | 273 | 5.0 | 7.0 | 0.00 | 0.00 | 0.00 | 78 | 1009.5 |
| 20260831062245 | 57 | 307 | 5.0 | 6.0 | 0.00 | 0.00 | 0.00 | 74 | 1009.5 |
| 20260831061745 | 57 | 305 | 7.0 | 10.0 | 0.00 | 0.00 | 0.00 | 75 | 1009.5 |
| 20260831061245 | 57 | 299 | 3.0 | 3.0 | 0.00 | 0.00 | 0.00 | 76 | 1009.5 |
| 20260831060743 | 57 | 277 | 3.0 | 5.0 | 0.00 | 0.00 | 0.00 | 76 | 1009.5 |
| 20260831060242 | 57 | 228 | 4.0 | 6.0 | 0.00 | 0.00 | 0.00 | 75 | 1009.5 |
| 20260831055742 | 57 | 228 | 5.0 | 8.0 | 0.00 | 0.00 | 0.15 | 74 | 1009.5 |
| 20260831055242 | 57 | 318 | 2.0 | 5.0 | 0.00 | 0.00 | 0.15 | 73 | 1009.5 |
| 20260831054741 | 56 | 281 | 3.0 | 5.0 | 0.00 | 0.00 | 0.15 | 72 | 1009.5 |
| 20260831054241 | 56 | 272 | 3.0 | 3.0 | 0.00 | 0.00 | 0.15 | 72 | 1009.5 |
| 20260831053743 | 56 | 293 | 3.0 | 3.0 | 0.00 | 0.00 | 0.15 | 73 | 1009.5 |
| 20260831053242 | 56 | 246 | 3.0 | 3.0 | 0.00 | 0.00 | 0.15 | 73 | 1009.5 |
| 20260831052741 | 56 | 272 | 6.0 | 7.0 | 0.00 | 0.00 | 0.15 | 72 | 1009.1 |
| 20260831052240 | 56 | 252 | 5.0 | 8.0 | 0.00 | 0.00 | 0.15 | 73 | 1009.5 |
| 20260831051740 | 56 | 298 | 4.0 | 6.0 | 0.00 | 0.00 | 0.15 | 73 | 1009.5 |
| 20260831051240 | 56 | 350 | 4.0 | 6.0 | 0.00 | 0.00 | 0.15 | 73 | 1009.5 |
| 20260831050740 | 56 | 306 | 5.0 | 7.0 | 0.00 | 0.00 | 0.15 | 73 | 1009.5 |
| 20260831050239 | 56 | 285 | 3.0 | 5.0 | 0.00 | 0.00 | 0.15 | 73 | 1009.5 |
| 20260831045739 | 56 | 261 | 3.0 | 3.0 | 0.00 | 0.00 | 0.15 | 73 | 1009.5 |
| 20260831045240 | 56 | 20 | 3.0 | 3.0 | 0.00 | 0.00 | 0.15 | 71 | 1009.5 |
| 20260831044739 | 56 | 303 | 5.0 | 7.0 | 0.00 | 0.00 | 0.15 | 71 | 1009.5 |
| 20260831044239 | 56 | 232 | 0.0 | 1.0 | 0.00 | 0.00 | 0.15 | 72 | 1009.5 |
| 20260831043738 | 56 | 238 | 1.0 | 1.0 | 0.00 | 0.00 | 0.15 | 73 | 1009.5 |
| 20260831043238 | 57 | 276 | 4.0 | 6.0 | 0.00 | 0.00 | 0.15 | 72 | 1009.5 |
| 20260831042737 | 57 | 213 | 3.0 | 5.0 | 0.00 | 0.00 | 0.15 | 70 | 1009.5 |
| 20260831042237 | 57 | 86 | 4.0 | 5.0 | 0.00 | 0.00 | 0.15 | 70 | 1009.5 |
| 20260831041736 | 57 | 293 | 2.0 | 3.0 | 0.00 | 0.00 | 0.15 | 70 | 1009.1 |
| 20260831041236 | 57 | 278 | 2.0 | 3.0 | 0.00 | 0.00 | 0.15 | 70 | 1009.5 |
| 20260831040735 | 57 | 289 | 5.0 | 7.0 | 0.00 | 0.00 | 0.15 | 70 | 1009.1 |
| 20260831040236 | 57 | 301 | 7.0 | 11.0 | 0.00 | 0.00 | 0.15 | 69 | 1009.1 |
| 20260831035734 | 57 | 281 | 3.0 | 5.0 | 0.00 | 0.00 | 0.15 | 69 | 1009.1 |
| 20260831035235 | 57 | 270 | 5.0 | 7.0 | 0.00 | 0.00 | 0.15 | 68 | 1009.1 |
| 20260831034734 | 57 | 295 | 5.0 | 6.0 | 0.00 | 0.00 | 0.15 | 68 | 1009.1 |
| 20260831034233 | 58 | 212 | 1.0 | 2.0 | 0.00 | 0.00 | 0.15 | 68 | 1009.1 |
| 20260831033737 | 58 | 314 | 5.0 | 7.0 | 0.00 | 0.00 | 0.15 | 67 | 1009.1 |
| 20260831033236 | 58 | 273 | 7.0 | 9.0 | 0.00 | 0.00 | 0.15 | 67 | 1009.1 |
| 20260831032734 | 58 | 247 | 4.0 | 7.0 | 0.00 | 0.00 | 0.15 | 67 | 1009.1 |
| 20260831032234 | 58 | 296 | 3.0 | 5.0 | 0.00 | 0.00 | 0.15 | 67 | 1009.1 |
| 20260831031734 | 58 | 313 | 4.0 | 6.0 | 0.00 | 0.00 | 0.15 | 67 | 1008.8 |
| 20260831031233 | 59 | 232 | 5.0 | 6.0 | 0.00 | 0.00 | 0.15 | 66 | 1008.8 |
| 20260831030732 | 59 | 249 | 4.0 | 7.0 | 0.00 | 0.00 | 0.15 | 65 | 1008.8 |
| 20260831030231 | 59 | 235 | 3.0 | 5.0 | 0.00 | 0.00 | 0.15 | 65 | 1008.8 |
| 20260831025730 | 59 | 306 | 5.0 | 6.0 | 0.00 | 0.00 | 0.15 | 65 | 1009.1 |
| 20260831025231 | 59 | 227 | 2.0 | 2.0 | 0.00 | 0.00 | 0.15 | 65 | 1008.8 |
| 20260831024729 | 59 | 158 | 1.0 | 2.0 | 0.00 | 0.00 | 0.15 | 67 | 1008.8 |
| 20260831024231 | 59 | 252 | 3.0 | 5.0 | 0.00 | 0.00 | 0.15 | 67 | 1008.8 |
| 20260831023729 | 59 | 294 | 4.0 | 6.0 | 0.00 | 0.00 | 0.15 | 66 | 1008.8 |
| 20260831023230 | 59 | 245 | 2.0 | 2.0 | 0.00 | 0.00 | 0.15 | 66 | 1008.8 |
| 20260831022731 | 60 | 274 | 3.0 | 6.0 | 0.00 | 0.00 | 0.15 | 67 | 1008.8 |
| 20260831022231 | 60 | 1 | 4.0 | 5.0 | 0.00 | 0.00 | 0.15 | 67 | 1008.5 |
| 20260831021731 | 60 | 245 | 5.0 | 7.0 | 0.00 | 0.00 | 0.15 | 68 | 1008.8 |
| 20260831021228 | 60 | 297 | 3.0 | 3.0 | 0.00 | 0.00 | 0.15 | 70 | 1008.5 |
| 20260831020729 | 60 | 228 | 2.0 | 3.0 | 0.00 | 0.00 | 0.15 | 72 | 1008.5 |
| 20260831020228 | 60 | 260 | 5.0 | 6.0 | 0.00 | 0.00 | 0.15 | 72 | 1008.5 |
| 20260831015729 | 60 | 287 | 5.0 | 7.0 | 0.00 | 0.00 | 0.15 | 71 | 1008.5 |
| 20260831015228 | 61 | 269 | 3.0 | 5.0 | 0.00 | 0.00 | 0.15 | 71 | 1008.5 |
| 20260831014726 | 61 | 315 | 2.0 | 3.0 | 0.00 | 0.00 | 0.15 | 71 | 1008.5 |
| 20260831014226 | 61 | 286 | 4.0 | 5.0 | 0.00 | 0.00 | 0.15 | 71 | 1008.1 |
| 20260831013726 | 61 | 258 | 3.0 | 5.0 | 0.00 | 0.00 | 0.15 | 71 | 1008.5 |
| 20260831013227 | 61 | 206 | 3.0 | 5.0 | 0.00 | 0.00 | 0.15 | 71 | 1008.5 |
| 20260831012727 | 61 | 349 | 5.0 | 6.0 | 0.00 | 0.00 | 0.15 | 71 | 1008.5 |
| 20260831012226 | 61 | 115 | 3.0 | 6.0 | 0.00 | 0.00 | 0.15 | 71 | 1008.1 |
| 20260831011725 | 61 | 280 | 4.0 | 7.0 | 0.00 | 0.00 | 0.15 | 71 | 1008.1 |
| 20260831011225 | 61 | 274 | 4.0 | 9.0 | 0.00 | 0.00 | 0.15 | 71 | 1008.1 |
| 20260831010725 | 61 | 333 | 2.0 | 2.0 | 0.00 | 0.00 | 0.15 | 71 | 1008.1 |
| 20260831010225 | 61 | 223 | 4.0 | 6.0 | 0.00 | 0.00 | 0.15 | 70 | 1008.1 |
| 20260831005725 | 62 | 227 | 4.0 | 6.0 | 0.00 | 0.00 | 0.15 | 70 | 1007.8 |
| 20260831005225 | 62 | 302 | 2.0 | 2.0 | 0.00 | 0.00 | 0.15 | 69 | 1007.8 |
| 20260831004724 | 62 | 236 | 3.0 | 5.0 | 0.00 | 0.00 | 0.15 | 68 | 1007.8 |
| 20260831004225 | 62 | 303 | 2.0 | 3.0 | 0.00 | 0.00 | 0.15 | 68 | 1007.8 |
| 20260831003723 | 62 | 251 | 4.0 | 5.0 | 0.00 | 0.00 | 0.15 | 67 | 1007.5 |
| 20260831003224 | 63 | 168 | 7.0 | 9.0 | 0.00 | 0.00 | 0.15 | 66 | 1007.5 |
| 20260831002723 | 63 | 156 | 3.0 | 5.0 | 0.00 | 0.00 | 0.15 | 65 | 1007.5 |
| 20260831002222 | 63 | 33 | 2.0 | 3.0 | 0.00 | 0.00 | 0.15 | 65 | 1007.5 |
| 20260831001724 | 64 | 252 | 3.0 | 3.0 | 0.00 | 0.00 | 0.15 | 65 | 1007.5 |
| 20260831001223 | 64 | 10 | 1.0 | 3.0 | 0.00 | 0.00 | 0.15 | 64 | 1007.5 |
| 20260831000723 | 64 | 255 | 2.0 | 3.0 | 0.00 | 0.00 | 0.15 | 64 | 1007.5 |
| 20260831000222 | 64 | 211 | 6.0 | 8.0 | 0.00 | 0.00 | 0.15 | 63 | 1007.1 |
| 20260830235722 | 64 | 148 | 4.0 | 7.0 | 0.00 | 0.00 | 0.15 | 62 | 1007.1 |
| 20260830235222 | 64 | 114 | 4.0 | 9.0 | 0.00 | 0.00 | 0.15 | 62 | 1007.1 |
| 20260830234719 | 64 | 111 | 4.0 | 7.0 | 0.00 | 0.00 | 0.15 | 63 | 1007.1 |
| 20260830234219 | 63 | 355 | 5.0 | 7.0 | 0.00 | 0.00 | 0.15 | 63 | 1007.1 |
| 20260830233726 | 63 | 345 | 4.0 | 6.0 | 0.00 | 0.00 | 0.15 | 64 | 1007.1 |
| 20260830233219 | 63 | 317 | 3.0 | 5.0 | 0.00 | 0.00 | 0.15 | 64 | 1006.8 |
| 20260830232720 | 62 | 199 | 3.0 | 5.0 | 0.00 | 0.00 | 0.15 | 64 | 1006.8 |
| 20260830232219 | 62 | 76 | 5.0 | 6.0 | 0.00 | 0.00 | 0.15 | 67 | 1006.8 |
| 20260830231718 | 62 | 112 | 5.0 | 8.0 | 0.00 | 0.00 | 0.15 | 67 | 1006.8 |
| 20260830231219 | 62 | 257 | 3.0 | 5.0 | 0.00 | 0.00 | 0.15 | 67 | 1006.4 |
| 20260830230718 | 62 | 277 | 7.0 | 8.0 | 0.00 | 0.00 | 0.15 | 68 | 1006.8 |
| 20260830230217 | 62 | 290 | 7.0 | 13.0 | 0.00 | 0.00 | 0.15 | 68 | 1006.8 |
| 20260830225719 | 63 | 23 | 6.0 | 9.0 | 0.00 | 0.00 | 0.15 | 68 | 1006.4 |
| 20260830225217 | 63 | 259 | 2.0 | 2.0 | 0.00 | 0.00 | 0.15 | 67 | 1006.8 |
| 20260830224717 | 63 | 146 | 1.0 | 2.0 | 0.00 | 0.00 | 0.15 | 67 | 1006.8 |
| 20260830224216 | 63 | 234 | 3.0 | 3.0 | 0.00 | 0.00 | 0.15 | 67 | 1006.8 |
| 20260830223716 | 63 | 241 | 7.0 | 9.0 | 0.00 | 0.00 | 0.15 | 67 | 1006.8 |
| 20260830223216 | 63 | 39 | 1.0 | 2.0 | 0.00 | 0.00 | 0.15 | 66 | 1006.8 |